Location: Lafig�re
(44.4503°N, 4.0357°E)
Time: 01:07:58
(UTC+00:00)

Tiros 1 - Pass Details

Date: 27 January 2021
Orbit: 630 x 664 km, 48.4° (Epoch: 06 March)

Event Time Altitude Azimuth Distance (km) Brightness Sun altitude
Rises 17:28:26 0° 252° (WSW) 2,933 13.2 -7.8°
Reaches altitude 10° 17:30:46 10° 254° (WSW) 2,020 11.5 -8.2°
Maximum altitude 17:35:25 77° 340° (NNW) 653 7.2 -9.0°
Enters shadow 17:39:36 13° 67° (ENE) 1,836 8.8 -9.7°
